| time (UTC) | temp F | wind direction | speed MPH | gust MPH | rain 1hr in | rain 24hr in | rain mn in | humidity % | barometer mb |
| 20260507133403 | 67 | 30 | 7.0 | 12.0 | 0.00 | 0.01 | 0.01 | 74 | 1008.9 |
| 20260507132902 | 67 | 39 | 7.0 | 12.0 | 0.01 | 0.01 | 0.01 | 73 | 1008.9 |
| 20260507132403 | 66 | 19 | 7.0 | 12.0 | 0.01 | 0.01 | 0.01 | 74 | 1009.1 |
| 20260507131903 | 66 | 29 | 8.0 | 12.0 | 0.01 | 0.01 | 0.01 | 74 | 1009.2 |
| 20260507131403 | 67 | 70 | 7.0 | 12.0 | 0.01 | 0.01 | 0.01 | 73 | 1009.2 |
| 20260507130403 | 66 | 17 | 7.0 | 13.0 | 0.01 | 0.01 | 0.01 | 75 | 1009.5 |
| 20260507125903 | 66 | 28 | 9.0 | 14.0 | 0.01 | 0.01 | 0.01 | 76 | 1009.5 |
| 20260507125403 | 66 | 27 | 7.0 | 14.0 | 0.01 | 0.01 | 0.01 | 77 | 1009.5 |
| 20260507124903 | 66 | 28 | 6.0 | 10.0 | 0.01 | 0.01 | 0.01 | 79 | 1009.5 |
| 20260507124403 | 65 | 35 | 11.0 | 13.0 | 0.01 | 0.01 | 0.01 | 78 | 1009.5 |
| 20260507123402 | 65 | 38 | 9.0 | 13.0 | 0.01 | 0.01 | 0.01 | 78 | 1009.5 |
| 20260507122903 | 66 | 33 | 10.0 | 16.0 | 0.00 | 0.00 | 0.00 | 75 | 1009.6 |
| 20260507122402 | 66 | 33 | 10.0 | 13.0 | 0.00 | 0.00 | 0.00 | 76 | 1009.6 |
| 20260507121903 | 67 | 28 | 9.0 | 13.0 | 0.00 | 0.00 | 0.00 | 75 | 1009.6 |
| 20260507121402 | 67 | 42 | 6.0 | 10.0 | 0.00 | 0.00 | 0.00 | 73 | 1009.6 |
| 20260507120902 | 67 | 3 | 5.0 | 10.0 | 0.00 | 0.00 | 0.00 | 74 | 1009.6 |
| 20260507120403 | 68 | 50 | 9.0 | 14.0 | 0.00 | 0.00 | 0.00 | 73 | 1009.7 |
| 20260507115903 | 68 | 40 | 5.0 | 12.0 | 0.00 | 0.00 | 0.00 | 73 | 1009.7 |
| 20260507115402 | 67 | 22 | 5.0 | 12.0 | 0.00 | 0.00 | 0.00 | 74 | 1009.9 |
| 20260507114903 | 67 | 41 | 5.0 | 12.0 | 0.00 | 0.00 | 0.00 | 74 | 1010.0 |
| 20260507114403 | 67 | 63 | 7.0 | 12.0 | 0.00 | 0.00 | 0.00 | 74 | 1009.9 |
| 20260507113903 | 67 | 35 | 6.0 | 12.0 | 0.00 | 0.00 | 0.00 | 73 | 1010.1 |
| 20260507113403 | 67 | 28 | 4.0 | 10.0 | 0.00 | 0.00 | 0.00 | 74 | 1010.1 |
| 20260507112403 | 67 | 59 | 6.0 | 12.0 | 0.00 | 0.00 | 0.00 | 73 | 1010.1 |
| 20260507111904 | 67 | 41 | 5.0 | 8.0 | 0.00 | 0.00 | 0.00 | 73 | 1010.2 |
| 20260507111403 | 67 | 7 | 4.0 | 10.0 | 0.00 | 0.00 | 0.00 | 73 | 1010.2 |
| 20260507110903 | 67 | 2 | 3.0 | 10.0 | 0.00 | 0.00 | 0.00 | 75 | 1010.3 |
| 20260507110402 | 67 | 52 | 4.0 | 8.0 | 0.00 | 0.00 | 0.00 | 74 | 1010.2 |
| 20260507105903 | 67 | 41 | 5.0 | 9.0 | 0.00 | 0.00 | 0.00 | 74 | 1010.2 |
| 20260507104903 | 67 | 61 | 3.0 | 9.0 | 0.00 | 0.00 | 0.00 | 75 | 1010.3 |
| 20260507104403 | 66 | 55 | 5.0 | 10.0 | 0.00 | 0.00 | 0.00 | 75 | 1010.2 |
| 20260507103903 | 67 | 57 | 5.0 | 8.0 | 0.00 | 0.00 | 0.00 | 74 | 1010.3 |
| 20260507103403 | 67 | 72 | 5.0 | 8.0 | 0.00 | 0.00 | 0.00 | 74 | 1010.4 |
| 20260507102903 | 67 | 65 | 5.0 | 8.0 | 0.00 | 0.00 | 0.00 | 76 | 1010.4 |
| 20260507101903 | 67 | 40 | 6.0 | 8.0 | 0.00 | 0.00 | 0.00 | 75 | 1010.3 |
| 20260507100403 | 67 | 52 | 5.0 | 7.0 | 0.00 | 0.00 | 0.00 | 75 | 1010.4 |
| 20260507095403 | 67 | 1 | 7.0 | 9.0 | 0.00 | 0.00 | 0.00 | 76 | 1010.5 |
| 20260507094903 | 67 | 53 | 5.0 | 8.0 | 0.00 | 0.00 | 0.00 | 75 | 1010.4 |
| 20260507094403 | 67 | 68 | 4.0 | 7.0 | 0.00 | 0.00 | 0.00 | 75 | 1010.6 |
| 20260507093904 | 67 | 33 | 4.0 | 9.0 | 0.00 | 0.00 | 0.00 | 73 | 1010.5 |
| 20260507093403 | 67 | 15 | 6.0 | 9.0 | 0.00 | 0.00 | 0.00 | 74 | 1010.6 |
| 20260507092903 | 67 | 31 | 2.0 | 7.0 | 0.00 | 0.00 | 0.00 | 76 | 1010.6 |
| 20260507092403 | 66 | 12 | 5.0 | 10.0 | 0.00 | 0.00 | 0.00 | 76 | 1010.5 |
| 20260507091903 | 66 | 14 | 6.0 | 9.0 | 0.00 | 0.00 | 0.00 | 76 | 1010.4 |
| 20260507091403 | 66 | 23 | 6.0 | 9.0 | 0.00 | 0.00 | 0.00 | 76 | 1010.3 |
| 20260507090903 | 66 | 11 | 5.0 | 7.0 | 0.00 | 0.00 | 0.00 | 76 | 1010.5 |
| 20260507090403 | 66 | 345 | 5.0 | 8.0 | 0.00 | 0.00 | 0.00 | 77 | 1010.6 |
| 20260507085903 | 66 | 31 | 6.0 | 10.0 | 0.00 | 0.00 | 0.00 | 77 | 1010.6 |
| 20260507084903 | 66 | 37 | 5.0 | 8.0 | 0.00 | 0.00 | 0.00 | 75 | 1010.6 |
| 20260507084403 | 66 | 22 | 2.0 | 8.0 | 0.00 | 0.00 | 0.00 | 75 | 1010.6 |
| 20260507083903 | 66 | 347 | 4.0 | 8.0 | 0.00 | 0.00 | 0.00 | 75 | 1010.5 |
| 20260507083403 | 66 | 342 | 5.0 | 8.0 | 0.00 | 0.00 | 0.00 | 75 | 1010.4 |
| 20260507082903 | 65 | 304 | 3.0 | 6.0 | 0.00 | 0.00 | 0.00 | 75 | 1010.4 |
| 20260507082403 | 65 | 314 | 4.0 | 8.0 | 0.00 | 0.00 | 0.00 | 75 | 1010.3 |
| 20260507081903 | 65 | 334 | 4.0 | 8.0 | 0.00 | 0.00 | 0.00 | 75 | 1010.2 |
| 20260507081403 | 65 | 316 | 5.0 | 9.0 | 0.00 | 0.00 | 0.00 | 75 | 1010.2 |
| 20260507080903 | 65 | 270 | 5.0 | 10.0 | 0.00 | 0.00 | 0.00 | 75 | 1010.3 |
| 20260507080403 | 65 | 306 | 3.0 | 10.0 | 0.00 | 0.00 | 0.00 | 75 | 1010.2 |
| 20260507075903 | 64 | 313 | 4.0 | 9.0 | 0.00 | 0.00 | 0.00 | 75 | 1010.3 |
| 20260507075403 | 64 | 302 | 6.0 | 10.0 | 0.00 | 0.00 | 0.00 | 75 | 1010.3 |
| 20260507074903 | 65 | 289 | 5.0 | 9.0 | 0.00 | 0.00 | 0.00 | 75 | 1010.2 |
| 20260507074403 | 64 | 312 | 4.0 | 7.0 | 0.00 | 0.00 | 0.00 | 75 | 1010.2 |
| 20260507073903 | 64 | 299 | 6.0 | 10.0 | 0.00 | 0.00 | 0.00 | 75 | 1010.1 |
| 20260507072904 | 64 | 286 | 5.0 | 8.0 | 0.00 | 0.00 | 0.00 | 75 | 1010.1 |
| 20260507072403 | 64 | 294 | 4.0 | 8.0 | 0.00 | 0.00 | 0.00 | 75 | 1010.1 |
| 20260507071903 | 64 | 307 | 4.0 | 7.0 | 0.00 | 0.00 | 0.00 | 75 | 1010.1 |
| 20260507070903 | 63 | 267 | 4.0 | 6.0 | 0.00 | 0.00 | 0.00 | 75 | 1010.1 |
| 20260507064903 | 61 | 270 | 4.0 | 6.0 | 0.00 | 0.00 | 0.00 | 78 | 1010.1 |
| 20260507063902 | 61 | 234 | 3.0 | 6.0 | 0.00 | 0.00 | 0.00 | 78 | 1010.3 |
| 20260507063403 | 61 | 208 | 5.0 | 6.0 | 0.00 | 0.00 | 0.00 | 79 | 1010.2 |
| 20260507062903 | 61 | 224 | 3.0 | 6.0 | 0.00 | 0.00 | 0.00 | 79 | 1010.3 |
| 20260507062403 | 61 | 217 | 3.0 | 5.0 | 0.00 | 0.00 | 0.00 | 79 | 1010.1 |
| 20260507061904 | 60 | 230 | 2.0 | 5.0 | 0.00 | 0.00 | 0.00 | 79 | 1010.2 |
| 20260507061403 | 60 | 253 | 3.0 | 7.0 | 0.00 | 0.00 | 0.00 | 79 | 1010.2 |
| 20260507060903 | 60 | 247 | 3.0 | 6.0 | 0.00 | 0.00 | 0.00 | 79 | 1010.1 |
| 20260507060403 | 60 | 263 | 4.0 | 6.0 | 0.00 | 0.00 | 0.00 | 78 | 1010.0 |
| 20260507055903 | 60 | 253 | 3.0 | 6.0 | 0.00 | 0.00 | 0.00 | 79 | 1010.1 |
| 20260507055403 | 60 | 231 | 2.0 | 3.0 | 0.00 | 0.00 | 0.00 | 79 | 1009.9 |
| 20260507054903 | 60 | 215 | 2.0 | 3.0 | 0.00 | 0.00 | 0.00 | 79 | 1009.9 |
| 20260507054403 | 60 | 219 | 2.0 | 3.0 | 0.00 | 0.00 | 0.00 | 79 | 1009.9 |
| 20260507053903 | 60 | 266 | 2.0 | 5.0 | 0.00 | 0.00 | 0.00 | 79 | 1009.7 |
| 20260507053403 | 60 | 248 | 3.0 | 5.0 | 0.00 | 0.00 | 0.00 | 79 | 1009.8 |
| 20260507052903 | 60 | 261 | 2.0 | 3.0 | 0.00 | 0.00 | 0.00 | 79 | 1009.7 |
| 20260507052403 | 60 | 248 | 3.0 | 6.0 | 0.00 | 0.00 | 0.00 | 79 | 1009.6 |
| 20260507051403 | 60 | 235 | 3.0 | 5.0 | 0.00 | 0.00 | 0.00 | 80 | 1009.6 |
| 20260507050903 | 60 | 230 | 2.0 | 3.0 | 0.00 | 0.00 | 0.00 | 79 | 1009.5 |
| 20260507050403 | 60 | 242 | 1.0 | 3.0 | 0.00 | 0.00 | 0.00 | 79 | 1009.4 |
| 20260507045903 | 60 | 224 | 1.0 | 3.0 | 0.00 | 0.00 | 0.00 | 79 | 1009.5 |
| 20260507045403 | 60 | 239 | 2.0 | 3.0 | 0.00 | 0.00 | 0.00 | 79 | 1009.5 |
| 20260507044903 | 60 | 263 | 2.0 | 3.0 | 0.00 | 0.00 | 0.00 | 80 | 1009.5 |
| 20260507044404 | 60 | 220 | 3.0 | 5.0 | 0.00 | 0.00 | 0.00 | 80 | 1009.5 |
| 20260507043403 | 60 | 251 | 2.0 | 3.0 | 0.00 | 0.00 | 0.00 | 80 | 1009.4 |
| 20260507042903 | 60 | 207 | 2.0 | 5.0 | 0.00 | 0.00 | 0.00 | 80 | 1009.4 |
| 20260507041403 | 60 | 242 | 3.0 | 5.0 | 0.00 | 0.00 | 0.00 | 80 | 1009.5 |
| 20260507040903 | 60 | 237 | 3.0 | 5.0 | 0.00 | 0.00 | 0.00 | 79 | 1009.4 |
| 20260507040403 | 60 | 225 | 3.0 | 5.0 | 0.00 | 0.00 | 0.00 | 79 | 1009.4 |
| 20260507035904 | 61 | 234 | 3.0 | 6.0 | 0.00 | 0.00 | 0.00 | 79 | 1009.4 |
| 20260507035403 | 61 | 232 | 4.0 | 6.0 | 0.00 | 0.00 | 0.00 | 78 | 1009.5 |
| 20260507034904 | 61 | 223 | 2.0 | 5.0 | 0.00 | 0.00 | 0.00 | 78 | 1009.5 |
| 20260507034404 | 61 | 220 | 1.0 | 3.0 | 0.00 | 0.00 | 0.00 | 78 | 1009.5 |
| 20260507033903 | 61 | 220 | 3.0 | 6.0 | 0.00 | 0.00 | 0.00 | 78 | 1009.5 |
| 20260507033403 | 61 | 225 | 1.0 | 3.0 | 0.00 | 0.00 | 0.00 | 78 | 1009.4 |
| 20260507032403 | 61 | 216 | 1.0 | 2.0 | 0.00 | 0.00 | 0.00 | 78 | 1009.5 |
| 20260507031903 | 61 | 216 | 1.0 | 2.0 | 0.00 | 0.00 | 0.00 | 78 | 1009.5 |
| 20260507030903 | 60 | 215 | 2.0 | 3.0 | 0.00 | 0.00 | 0.00 | 79 | 1009.7 |
| 20260507030403 | 60 | 239 | 3.0 | 5.0 | 0.00 | 0.00 | 0.00 | 79 | 1009.7 |
| 20260507025903 | 60 | 251 | 2.0 | 3.0 | 0.00 | 0.00 | 0.00 | 79 | 1009.7 |
| 20260507025403 | 60 | 243 | 2.0 | 3.0 | 0.00 | 0.00 | 0.00 | 79 | 1009.7 |
| 20260507024903 | 60 | 253 | 2.0 | 3.0 | 0.00 | 0.00 | 0.00 | 80 | 1009.8 |
| 20260507023903 | 60 | 248 | 2.0 | 3.0 | 0.00 | 0.00 | 0.00 | 80 | 1009.8 |
| 20260507023403 | 60 | 233 | 1.0 | 3.0 | 0.00 | 0.00 | 0.00 | 80 | 1009.7 |
| 20260507022903 | 59 | 247 | 2.0 | 3.0 | 0.00 | 0.00 | 0.00 | 80 | 1009.7 |
| 20260507021903 | 59 | 238 | 4.0 | 5.0 | 0.00 | 0.00 | 0.00 | 80 | 1009.8 |
| 20260507020904 | 59 | 255 | 3.0 | 3.0 | 0.00 | 0.00 | 0.00 | 80 | 1009.7 |
| 20260507020404 | 59 | 261 | 3.0 | 5.0 | 0.00 | 0.00 | 0.00 | 80 | 1009.7 |
| 20260507015903 | 59 | 261 | 5.0 | 6.0 | 0.00 | 0.00 | 0.00 | 80 | 1009.7 |
| 20260507014903 | 59 | 255 | 2.0 | 3.0 | 0.00 | 0.00 | 0.00 | 81 | 1009.6 |
| 20260507014403 | 59 | 260 | 2.0 | 3.0 | 0.00 | 0.00 | 0.00 | 80 | 1009.7 |
| 20260507013903 | 59 | 240 | 2.0 | 3.0 | 0.00 | 0.00 | 0.00 | 81 | 1009.7 |
| 20260507013403 | 59 | 260 | 2.0 | 3.0 | 0.00 | 0.00 | 0.00 | 82 | 1009.7 |
| 20260507012904 | 59 | 251 | 2.0 | 3.0 | 0.00 | 0.00 | 0.00 | 82 | 1009.7 |
| 20260507012404 | 58 | 246 | 3.0 | 5.0 | 0.00 | 0.00 | 0.00 | 82 | 1009.7 |
| 20260507011904 | 58 | 243 | 2.0 | 5.0 | 0.00 | 0.00 | 0.00 | 82 | 1009.7 |
| 20260507011403 | 58 | 246 | 2.0 | 6.0 | 0.00 | 0.00 | 0.00 | 81 | 1009.7 |
| 20260507010403 | 59 | 253 | 3.0 | 5.0 | 0.00 | 0.00 | 0.00 | 80 | 1009.7 |
| 20260507005903 | 60 | 246 | 5.0 | 6.0 | 0.00 | 0.00 | 0.00 | 80 | 1009.7 |
| 20260507005404 | 60 | 260 | 3.0 | 5.0 | 0.00 | 0.00 | 0.00 | 79 | 1009.7 |
| 20260507004903 | 60 | 258 | 2.0 | 3.0 | 0.00 | 0.00 | 0.00 | 81 | 1009.7 |
| 20260507003903 | 60 | 241 | 2.0 | 3.0 | 0.00 | 0.00 | 0.00 | 80 | 1009.7 |
| 20260507003404 | 60 | 261 | 2.0 | 3.0 | 0.00 | 0.00 | 0.00 | 80 | 1009.8 |
| 20260507002904 | 60 | 257 | 2.0 | 3.0 | 0.00 | 0.00 | 0.00 | 79 | 1009.7 |
| 20260507002403 | 60 | 244 | 2.0 | 3.0 | 0.00 | 0.00 | 0.00 | 78 | 1009.9 |
| 20260507001903 | 60 | 232 | 1.0 | 2.0 | 0.00 | 0.00 | 0.00 | 79 | 1009.9 |
| 20260507001404 | 60 | 236 | 2.0 | 3.0 | 0.00 | 0.00 | 0.00 | 78 | 1009.9 |
| 20260507000904 | 61 | 245 | 2.0 | 3.0 | 0.00 | 0.00 | 0.00 | 78 | 1010.0 |
| 20260507000405 | 61 | 223 | 1.0 | 3.0 | 0.00 | 0.00 | 0.00 | 78 | 1009.9 |
| 20260506235903 | 61 | 223 | 0.0 | 1.0 | 0.00 | 0.00 | 0.00 | 78 | 1010.0 |
| 20260506235404 | 61 | 223 | 0.0 | 1.0 | 0.00 | 0.00 | 0.00 | 78 | 1010.2 |
| 20260506234903 | 61 | 223 | 1.0 | 2.0 | 0.00 | 0.00 | 0.00 | 78 | 1010.2 |
| 20260506234404 | 60 | 223 | 1.0 | 3.0 | 0.00 | 0.00 | 0.00 | 78 | 1010.3 |
| 20260506233403 | 60 | 223 | 1.0 | 3.0 | 0.00 | 0.00 | 0.00 | 77 | 1010.4 |
| 20260506232903 | 60 | 244 | 2.0 | 3.0 | 0.00 | 0.00 | 0.00 | 77 | 1010.3 |
| 20260506232404 | 60 | 249 | 3.0 | 3.0 | 0.00 | 0.00 | 0.00 | 77 | 1010.3 |
| 20260506231904 | 60 | 250 | 3.0 | 5.0 | 0.00 | 0.00 | 0.00 | 77 | 1010.2 |
| 20260506230903 | 60 | 249 | 3.0 | 5.0 | 0.00 | 0.00 | 0.00 | 77 | 1010.3 |
| 20260506225903 | 60 | 261 | 3.0 | 5.0 | 0.00 | 0.00 | 0.00 | 77 | 1010.4 |
| 20260506225403 | 60 | 270 | 3.0 | 5.0 | 0.00 | 0.00 | 0.00 | 77 | 1010.4 |
| 20260506224903 | 60 | 278 | 3.0 | 5.0 | 0.00 | 0.00 | 0.00 | 77 | 1010.5 |
| 20260506224403 | 60 | 275 | 3.0 | 5.0 | 0.00 | 0.00 | 0.00 | 77 | 1010.5 |
| 20260506223903 | 60 | 262 | 3.0 | 5.0 | 0.00 | 0.00 | 0.00 | 77 | 1010.6 |
| 20260506223403 | 60 | 265 | 5.0 | 7.0 | 0.00 | 0.00 | 0.00 | 77 | 1010.7 |
| 20260506222903 | 60 | 267 | 3.0 | 3.0 | 0.00 | 0.00 | 0.00 | 77 | 1010.6 |
| 20260506222403 | 60 | 275 | 3.0 | 5.0 | 0.00 | 0.00 | 0.00 | 78 | 1010.5 |
| 20260506221903 | 60 | 257 | 3.0 | 5.0 | 0.00 | 0.00 | 0.00 | 78 | 1010.5 |
| 20260506221403 | 60 | 253 | 4.0 | 5.0 | 0.00 | 0.00 | 0.00 | 78 | 1010.5 |
| 20260506220403 | 60 | 248 | 4.0 | 7.0 | 0.00 | 0.00 | 0.00 | 78 | 1010.6 |
| 20260506215903 | 60 | 259 | 5.0 | 7.0 | 0.00 | 0.00 | 0.00 | 78 | 1010.6 |
| 20260506215403 | 60 | 251 | 5.0 | 6.0 | 0.00 | 0.00 | 0.00 | 78 | 1010.6 |
| 20260506214903 | 60 | 265 | 5.0 | 6.0 | 0.00 | 0.00 | 0.00 | 78 | 1010.5 |
| 20260506214403 | 60 | 268 | 3.0 | 6.0 | 0.00 | 0.00 | 0.00 | 78 | 1010.5 |
| 20260506213904 | 60 | 249 | 5.0 | 6.0 | 0.00 | 0.00 | 0.00 | 78 | 1010.5 |
| 20260506213404 | 60 | 251 | 3.0 | 5.0 | 0.00 | 0.00 | 0.00 | 78 | 1010.6 |
| 20260506212403 | 61 | 253 | 3.0 | 5.0 | 0.00 | 0.00 | 0.00 | 77 | 1010.4 |
| 20260506211904 | 61 | 246 | 2.0 | 3.0 | 0.00 | 0.00 | 0.00 | 76 | 1010.3 |
| 20260506211403 | 62 | 244 | 2.0 | 3.0 | 0.00 | 0.00 | 0.00 | 76 | 1010.3 |
| 20260506210403 | 62 | 192 | 1.0 | 3.0 | 0.00 | 0.00 | 0.00 | 75 | 1010.2 |
| 20260506205904 | 63 | 146 | 0.0 | 1.0 | 0.00 | 0.00 | 0.00 | 75 | 1010.2 |
| 20260506205403 | 63 | 146 | 1.0 | 1.0 | 0.00 | 0.00 | 0.00 | 75 | 1010.2 |
| 20260506204903 | 63 | 146 | 0.0 | 2.0 | 0.00 | 0.00 | 0.00 | 75 | 1010.1 |
| 20260506204403 | 63 | 141 | 1.0 | 2.0 | 0.00 | 0.00 | 0.00 | 75 | 1009.9 |
| 20260506203903 | 63 | 132 | 0.0 | 1.0 | 0.00 | 0.00 | 0.00 | 75 | 1009.8 |
| 20260506203403 | 63 | 132 | 0.0 | 2.0 | 0.00 | 0.00 | 0.00 | 75 | 1009.8 |
| 20260506202904 | 63 | 132 | 1.0 | 2.0 | 0.00 | 0.00 | 0.00 | 74 | 1009.8 |
| 20260506202404 | 63 | 132 | 2.0 | 3.0 | 0.00 | 0.00 | 0.00 | 74 | 1009.8 |
| 20260506201903 | 63 | 131 | 2.0 | 5.0 | 0.00 | 0.00 | 0.00 | 74 | 1009.8 |
| 20260506201403 | 63 | 140 | 5.0 | 6.0 | 0.00 | 0.00 | 0.00 | 73 | 1009.8 |
| 20260506200903 | 63 | 140 | 3.0 | 5.0 | 0.00 | 0.00 | 0.00 | 72 | 1009.8 |
| 20260506200403 | 63 | 132 | 2.0 | 5.0 | 0.00 | 0.00 | 0.00 | 72 | 1009.7 |
| 20260506195904 | 63 | 151 | 3.0 | 5.0 | 0.00 | 0.00 | 0.00 | 71 | 1009.6 |
| 20260506195403 | 64 | 134 | 4.0 | 5.0 | 0.00 | 0.00 | 0.00 | 71 | 1009.4 |
| 20260506194903 | 64 | 131 | 4.0 | 6.0 | 0.00 | 0.00 | 0.00 | 71 | 1009.3 |
| 20260506193403 | 64 | 136 | 3.0 | 5.0 | 0.00 | 0.00 | 0.00 | 69 | 1009.3 |
| 20260506192903 | 64 | 134 | 3.0 | 5.0 | 0.00 | 0.00 | 0.00 | 69 | 1009.3 |
| 20260506192403 | 64 | 135 | 3.0 | 5.0 | 0.00 | 0.00 | 0.00 | 69 | 1009.2 |
| 20260506191903 | 64 | 129 | 2.0 | 5.0 | 0.00 | 0.00 | 0.00 | 69 | 1009.2 |
| 20260506191404 | 64 | 117 | 4.0 | 6.0 | 0.00 | 0.00 | 0.00 | 69 | 1009.1 |
| 20260506190903 | 64 | 132 | 4.0 | 6.0 | 0.00 | 0.00 | 0.00 | 68 | 1009.1 |
| 20260506190403 | 65 | 138 | 4.0 | 6.0 | 0.00 | 0.00 | 0.00 | 68 | 1009.2 |
| 20260506185903 | 65 | 135 | 3.0 | 5.0 | 0.00 | 0.00 | 0.00 | 68 | 1009.2 |
| 20260506184903 | 65 | 132 | 5.0 | 7.0 | 0.00 | 0.00 | 0.00 | 67 | 1009.2 |
| 20260506184404 | 65 | 116 | 5.0 | 6.0 | 0.00 | 0.00 | 0.00 | 66 | 1009.2 |
| 20260506183903 | 65 | 129 | 2.0 | 6.0 | 0.00 | 0.00 | 0.00 | 66 | 1009.2 |
| 20260506182904 | 65 | 117 | 5.0 | 8.0 | 0.00 | 0.00 | 0.00 | 65 | 1009.1 |
| 20260506182403 | 65 | 114 | 3.0 | 6.0 | 0.00 | 0.00 | 0.00 | 66 | 1009.0 |
| 20260506181904 | 65 | 76 | 3.0 | 6.0 | 0.00 | 0.00 | 0.00 | 66 | 1009.0 |
| 20260506181404 | 65 | 122 | 6.0 | 7.0 | 0.00 | 0.00 | 0.00 | 66 | 1009.0 |
| 20260506180904 | 65 | 108 | 5.0 | 6.0 | 0.00 | 0.00 | 0.00 | 66 | 1009.1 |
| 20260506175904 | 65 | 113 | 5.0 | 7.0 | 0.00 | 0.00 | 0.00 | 66 | 1008.9 |
| 20260506175404 | 65 | 105 | 5.0 | 9.0 | 0.00 | 0.02 | 0.00 | 66 | 1009.0 |
| 20260506174904 | 65 | 125 | 3.0 | 8.0 | 0.00 | 0.03 | 0.00 | 66 | 1008.8 |
| 20260506174404 | 65 | 106 | 5.0 | 9.0 | 0.00 | 0.03 | 0.00 | 66 | 1008.9 |
| 20260506173903 | 65 | 109 | 6.0 | 9.0 | 0.00 | 0.03 | 0.00 | 65 | 1008.9 |
| 20260506173404 | 65 | 89 | 6.0 | 9.0 | 0.00 | 0.03 | 0.00 | 64 | 1008.9 |
| 20260506172904 | 65 | 113 | 5.0 | 10.0 | 0.00 | 0.03 | 0.00 | 64 | 1008.9 |
| 20260506172403 | 65 | 94 | 7.0 | 9.0 | 0.00 | 0.03 | 0.00 | 64 | 1008.9 |
| 20260506171903 | 65 | 98 | 6.0 | 12.0 | 0.00 | 0.03 | 0.00 | 65 | 1008.9 |
| 20260506171403 | 65 | 91 | 6.0 | 12.0 | 0.00 | 0.03 | 0.00 | 65 | 1008.9 |
| 20260506170904 | 66 | 84 | 6.0 | 12.0 | 0.00 | 0.03 | 0.00 | 66 | 1008.9 |
| 20260506170403 | 65 | 85 | 6.0 | 12.0 | 0.00 | 0.03 | 0.00 | 66 | 1008.9 |
| 20260506165904 | 65 | 76 | 6.0 | 12.0 | 0.00 | 0.03 | 0.00 | 66 | 1008.9 |
| 20260506165404 | 65 | 93 | 7.0 | 12.0 | 0.00 | 0.03 | 0.00 | 65 | 1009.0 |
| 20260506164903 | 65 | 90 | 8.0 | 12.0 | 0.00 | 0.03 | 0.00 | 67 | 1008.9 |
| 20260506164404 | 65 | 73 | 5.0 | 12.0 | 0.00 | 0.03 | 0.00 | 67 | 1009.0 |
| 20260506163904 | 65 | 84 | 8.0 | 12.0 | 0.00 | 0.03 | 0.00 | 66 | 1009.1 |
| 20260506163404 | 65 | 80 | 9.0 | 12.0 | 0.00 | 0.03 | 0.00 | 67 | 1009.1 |
| 20260506162903 | 65 | 87 | 7.0 | 12.0 | 0.00 | 0.03 | 0.00 | 68 | 1009.1 |
| 20260506162403 | 65 | 78 | 9.0 | 12.0 | 0.00 | 0.03 | 0.00 | 67 | 1009.2 |
| 20260506161403 | 66 | 74 | 7.0 | 13.0 | 0.00 | 0.03 | 0.00 | 68 | 1009.0 |
| 20260506160903 | 66 | 74 | 8.0 | 12.0 | 0.00 | 0.03 | 0.00 | 66 | 1009.0 |
| 20260506160404 | 66 | 98 | 8.0 | 12.0 | 0.00 | 0.03 | 0.00 | 68 | 1009.0 |
| 20260506155904 | 66 | 75 | 9.0 | 13.0 | 0.00 | 0.03 | 0.00 | 68 | 1009.0 |
| 20260506155403 | 66 | 80 | 6.0 | 13.0 | 0.00 | 0.03 | 0.00 | 67 | 1008.9 |
| 20260506154904 | 66 | 81 | 9.0 | 12.0 | 0.00 | 0.03 | 0.00 | 68 | 1009.0 |
| 20260506153903 | 66 | 77 | 7.0 | 14.0 | 0.00 | 0.03 | 0.00 | 66 | 1009.0 |
| 20260506153404 | 66 | 74 | 7.0 | 13.0 | 0.00 | 0.03 | 0.00 | 66 | 1009.1 |
| 20260506152404 | 66 | 85 | 9.0 | 13.0 | 0.00 | 0.03 | 0.00 | 67 | 1009.1 |
| 20260506151404 | 66 | 84 | 7.0 | 12.0 | 0.00 | 0.03 | 0.00 | 67 | 1009.0 |
| 20260506150404 | 65 | 74 | 7.0 | 12.0 | 0.00 | 0.03 | 0.00 | 67 | 1009.1 |
| 20260506145903 | 65 | 83 | 8.0 | 13.0 | 0.00 | 0.03 | 0.00 | 68 | 1009.1 |
| 20260506145404 | 65 | 87 | 9.0 | 12.0 | 0.00 | 0.03 | 0.00 | 68 | 1009.1 |
| 20260506144903 | 65 | 80 | 7.0 | 12.0 | 0.00 | 0.03 | 0.00 | 67 | 1009.2 |
| 20260506144403 | 65 | 88 | 7.0 | 12.0 | 0.00 | 0.03 | 0.00 | 67 | 1009.3 |
| 20260506143903 | 65 | 87 | 7.0 | 12.0 | 0.00 | 0.03 | 0.00 | 66 | 1009.4 |
| 20260506143403 | 65 | 69 | 7.0 | 12.0 | 0.00 | 0.03 | 0.00 | 66 | 1009.4 |
| 20260506142404 | 65 | 80 | 6.0 | 10.0 | 0.00 | 0.03 | 0.00 | 66 | 1009.6 |
| 20260506141903 | 65 | 73 | 5.0 | 12.0 | 0.00 | 0.03 | 0.00 | 66 | 1009.7 |
| 20260506141403 | 65 | 91 | 5.0 | 12.0 | 0.00 | 0.03 | 0.00 | 66 | 1009.8 |
| 20260506140903 | 65 | 104 | 7.0 | 13.0 | 0.00 | 0.03 | 0.00 | 66 | 1009.8 |
| 20260506140403 | 65 | 73 | 7.0 | 17.0 | 0.00 | 0.03 | 0.00 | 66 | 1009.8 |
| 20260506135404 | 64 | 79 | 8.0 | 14.0 | 0.00 | 0.03 | 0.00 | 66 | 1009.8 |
| 20260506134903 | 64 | 96 | 10.0 | 15.0 | 0.00 | 0.03 | 0.00 | 66 | 1009.8 |
| 20260506133904 | 64 | 71 | 8.0 | 13.0 | 0.00 | 0.04 | 0.00 | 68 | 1010.0 |